Regional Weather Roundup
Issued by NWS

Home | Current Version | Previous Version | Graphics & Text | Print | Product List | Glossary On
Versions: 1 2 3 4 5 6 7 8 9 10 11 12 13 14 15 16 17 18 19 20 21 22 23 24 25 26 27 28 29 30 31 32 33 34 35 36 37 38 39 40 41 42 43 44 45 46 47 48 49 50
000
ASUS43 KBIS 081102
RWRND

NORTH DAKOTA REGIONAL WEATHER ROUNDUP
NATIONAL WEATHER SERVICE BISMARCK ND
500 AM CST MON FEB 08 2016

NOTE: "FAIR" INDICATES FEW OR NO CLOUDS BELOW 12,000 FEET WITH NO
SIGNIFICANT WEATHER AND/OR OBSTRUCTIONS TO VISIBILITY.


NDZ001>003-009>011-017-081200-
NORTHWEST NORTH DAKOTA

CITY           SKY/WX    TMP DP  RH WIND       PRES   REMARKS
WILLISTON      CLEAR     24  16  71 NW17      30.33S WCI  11
MINOT          CLEAR     25  15  66 NW17G29   30.23R WCI  12
MINOT AFB      CLEAR     22  18  84 NW16      30.23R WCI   9
$$

NDZ018>021-031>035-040>046-081200-
SOUTHWEST NORTH DAKOTA

CITY           SKY/WX    TMP DP  RH WIND       PRES   REMARKS
BISMARCK       CLEAR     28  17  63 NW21G32   30.24R WCI  15
DICKINSON      CLEAR     18  13  80 W15       30.28R WCI   4
GARRISON         N/A     21  17  84 NW17      30.24R WCI   7
HETTINGER ARPT CLEAR     20  14  77 NW13      30.31R WCI   7
$$

NDZ004>008-012>016-024-026-027-054-081200-
NORTHEAST NORTH DAKOTA

CITY           SKY/WX    TMP DP  RH WIND       PRES   REMARKS
GRAND FORKS    LGT SNOW  14   8  77 N28G35    30.12R BLWGSNOWWCI  -6
GRND FRKS AFB  LGT SNOW  13   8  81 N23G30    30.13R WCI  -6
DEVILS LAKE    FLURRIES  17  12  80 N14       30.15R WCI   3
$$

NDZ022-023-025-028>030-036>039-047>053-081200-
SOUTHEAST NORTH DAKOTA

CITY           SKY/WX    TMP DP  RH WIND       PRES   REMARKS
FARGO          HAZE      14   9  80 N35G44    30.10R VSB 1/4 WCI  -8
JAMESTOWN      CLOUDY    20  13  74 N21       30.12R WCI   4
$$





USA.gov is the U.S. government's official web portal to all federal, state and local government web resources and services.